sat.trackr.live / text

‹ back to catalog

STARLINK-11526 [DTC]

NORAD 63007 · 2025-032C

PAYLOAD ACTIVE UNKNOWN

§ Identity

Operator
Country
US
Launch date
2025-02-15
Launch site
AFETR
Launch vehicle
Mass (kg)
RCS (m²)

Purposes: comms

External: N2YO · Heavens-Above · Gunter

§ Orbital elements

Epoch: 2026-05-25T05:04:59.748960Z

Period
91.67 min
Inclination
42.9998°
Eccentricity
0.0001608
Mean motion
15.70849053 rev/d
Perigee alt
355.4 km
Apogee alt
357.6 km
Semi-major
6,734.6 km
B*
1.4625e-3
RAAN
93.6535°
Arg perigee
263.1575°
Mean anomaly
96.9110°
Rev number
7,425

§ Raw data

STARLINK-11526 [DTC]1 63007U 25032C   26145.21180265  .00191674  00000+0  14625-2 0  99982 63007  42.9998  93.6535 0001608 263.1575  96.9110 15.70849053 74250

JSON: /api/v1/satellites/63007 · /tle

For live sub-satellite position, see the globe view (requires WebGL).

§ Visibility from observer

Set your observer location to see the next 7 days of passes ≥ 10°. The values pass through the URL so the page stays shareable.

No JS? Fill the form by hand. The geolocation button needs JavaScript.